Location: *
(49.9853°N, 3.5569°E)
Time: 09:52:36
(UTC+00:00)

Cosmos 1626 - Pass Details

Date: 22 September 2019
Orbit: 493 x 495 km, 82.5° (Epoch: 15 October)

Event Time Altitude Azimuth Distance (km) Brightness Sun altitude
Rises 19:24:14 0° 1° (N) 2,590 6.0 -16.5°
Reaches altitude 10° 19:26:44 10° 17° (NNE) 1,702 4.9 -16.9°
Enters shadow 19:28:58 21° 52° (NE) 1,178 3.7 -17.2°
